Lanai City, HI

7:11 PM HST on June 26, 2017 (GMT -1000)
Lanai City

Weather History for PHNY - February, 2012

Change the Weather History Date:

Tuesday, February 14, 2012

  Actual Average Record
Temperature  
Mean Temperature 72 °F -  
Max Temperature 80 °F 76 °F 84 °F (2003)
Min Temperature 63 °F 60 °F 35 °F (1997)
Cooling Degree Days 6    
Growing Degree Days 22 (Base 50)    
Moisture  
Dew Point 63 °F    
Average Humidity 80    
Maximum Humidity 94    
Minimum Humidity 51    
Precipitation  
Precipitation 0.00 in - - ()
Sea Level Pressure  
Sea Level Pressure 30.15 in    
Wind  
Wind Speed 7 mph (East)    
Max Wind Speed 17 mph    
Max Gust Speed -    
Visibility 10 miles    
Events      
Averages and records for this station are not official NWS values.
T = Trace of Precipitation, MM = Missing Value Source: NWS Daily Summary

Daily Weather History Graph

Daily Weather History Graph

Search for Another Location

Airport or City:

Trip Planner

Search our weather history database for the weather conditions in past years. The results will help you decide how hot, cold, wet, or windy it might be!

Date:

Astronomy

Feb. 14, 2012 Rise Set
Actual Time 6:58 AM HST 6:25 PM HST
Civil Twilight 6:35 AM HST 6:48 PM HST
Nautical Twilight 6:09 AM HST 7:14 PM HST
Astronomical Twilight 5:43 AM HST 7:40 PM HST
Moon 12:39 AM HST (2/14) 11:59 AM HST (2/14)
Length of Visible Light 12h 12m
Length of Day
11h 27m
Waning Gibbous, 48% of the Moon is Illuminated
Feb 14
Waning Gibbous
Feb 21
New
Feb 29
First Quarter
Mar 7
Full
Mar 14
Last Quarter

Hourly Weather History & Observations

Time (HST) Temp. Heat Index Dew Point Humidity Pressure Visibility Wind Dir Wind Speed Gust Speed Precip Events Conditions
12:22 AM 66.2 °F - 62.6 °F 88% 30.18 in 10.0 mi Calm Calm - N/A   Mostly Cloudy
12:56 AM 64.9 °F - 61.0 °F 87% 30.12 in 10.0 mi North 9.2 mph - N/A   Scattered Clouds
1:26 AM 64.4 °F - 62.6 °F 94% 30.16 in 10.0 mi North 8.1 mph - N/A   Mostly Cloudy
1:35 AM 66.2 °F - 62.6 °F 88% 30.16 in 10.0 mi North 6.9 mph - N/A   Mostly Cloudy
1:44 AM 66.2 °F - 62.6 °F 88% 30.16 in 10.0 mi North 8.1 mph - N/A   Mostly Cloudy
1:56 AM 66.2 °F - 62.6 °F 88% 30.16 in 10.0 mi NNE 8.1 mph - N/A   Mostly Cloudy
2:22 AM 64.4 °F - 62.6 °F 94% 30.15 in 10.0 mi NNE 6.9 mph - 0.00 in   Scattered Clouds
2:56 AM 64.9 °F - 61.9 °F 90% 30.10 in 10.0 mi North 8.1 mph - 0.00 in   Partly Cloudy
3:56 AM 64.9 °F - 61.9 °F 90% 30.09 in 10.0 mi NNE 9.2 mph - N/A   Mostly Cloudy
4:56 AM 64.9 °F - 61.9 °F 90% 30.10 in 10.0 mi North 6.9 mph - N/A   Mostly Cloudy
5:56 AM 63.9 °F - 61.0 °F 90% 30.12 in 10.0 mi NNE 8.1 mph - N/A   Clear
6:56 AM 63.0 °F - 59.9 °F 90% 30.14 in 10.0 mi Calm Calm - N/A   Clear
7:56 AM 64.9 °F - 61.9 °F 90% 30.15 in 10.0 mi East 3.5 mph - N/A   Clear
9:56 AM 73.9 °F - 61.9 °F 66% 30.15 in 10.0 mi South 8.1 mph - N/A   Partly Cloudy
10:27 AM 75.2 °F - 62.6 °F 65% 30.20 in 10.0 mi Calm Calm - N/A   Mostly Cloudy
10:56 AM 79.0 °F - 61.9 °F 56% 30.13 in 10.0 mi WNW 9.2 mph - N/A   Mostly Cloudy
11:56 AM 75.9 °F - 61.9 °F 62% 30.12 in 10.0 mi NW 6.9 mph - N/A   Mostly Cloudy
12:49 PM 75.2 °F - 62.6 °F 65% 30.15 in 10.0 mi WSW 6.9 mph - N/A   Mostly Cloudy
12:56 PM 75.9 °F - 63.0 °F 64% 30.10 in 10.0 mi West 4.6 mph - N/A   Mostly Cloudy
1:14 PM 75.2 °F - 62.6 °F 65% 30.14 in 10.0 mi West 8.1 mph - N/A   Mostly Cloudy
1:31 PM 75.2 °F - 62.6 °F 65% 30.14 in 10.0 mi WNW 5.8 mph - N/A   Overcast
1:56 PM 80.6 °F 81.5 °F 60.8 °F 51% 30.13 in 10.0 mi SW 11.5 mph - N/A   Scattered Clouds
2:56 PM 77.9 °F - 59.9 °F 54% 30.06 in 10.0 mi SE 13.8 mph - N/A   Clear
3:56 PM 75.9 °F - 61.9 °F 62% 30.07 in 10.0 mi ESE 17.3 mph - N/A   Clear
4:56 PM 73.9 °F - 63.0 °F 68% 30.09 in 10.0 mi ESE 13.8 mph - N/A   Partly Cloudy
5:56 PM 70.9 °F - 63.0 °F 76% 30.11 in 10.0 mi ESE 13.8 mph - N/A   Scattered Clouds
6:56 PM 70.0 °F - 64.9 °F 84% 30.13 in 10.0 mi SE 12.7 mph - N/A   Mostly Cloudy
7:18 PM 69.8 °F - 64.4 °F 83% 30.18 in 10.0 mi SE 8.1 mph - 0.00 in   Mostly Cloudy
7:27 PM 69.8 °F - 64.4 °F 83% 30.18 in 10.0 mi SE 10.4 mph - 0.00 in   Mostly Cloudy
7:56 PM 69.8 °F - 64.4 °F 83% 30.19 in 10.0 mi ESE 11.5 mph - N/A   Scattered Clouds
8:25 PM 69.8 °F - 64.4 °F 83% 30.20 in 9.0 mi SE 10.4 mph - N/A   Mostly Cloudy
8:39 PM 69.8 °F - 64.4 °F 83% 30.20 in 10.0 mi SE 9.2 mph - N/A   Mostly Cloudy
8:43 PM 68.0 °F - 64.4 °F 88% 30.20 in 10.0 mi SE 9.2 mph - N/A   Mostly Cloudy
8:56 PM 68.0 °F - 64.9 °F 90% 30.15 in 10.0 mi SSE 6.9 mph - N/A   Scattered Clouds
9:17 PM 68.0 °F - 64.4 °F 88% 30.20 in 9.0 mi SE 3.5 mph - N/A   Partly Cloudy
9:36 PM 68.0 °F - 64.4 °F 88% 30.20 in 8.0 mi SE 4.6 mph - N/A   Mostly Cloudy
9:56 PM 68.0 °F - 65.8 °F 93% 30.15 in 8.0 mi SE 5.8 mph - N/A   Mostly Cloudy
10:56 PM 66.2 °F - 64.4 °F 94% 30.21 in 9.0 mi Calm Calm - N/A   Mostly Cloudy
11:22 PM 66.2 °F - 64.4 °F 94% 30.21 in 9.0 mi Calm Calm - N/A   Scattered Clouds
11:56 PM 63.9 °F - 61.9 °F 93% 30.15 in 6.0 mi Calm Calm - N/A   Partly Cloudy